FW6109 Weather Reports


time (UTC)temp
F
wind
direction
speed
knots
gust
knots
rain 1hr
in
rain 24hr
in
rain mn
in
humidity
%
barometer
mb
20260503224016 78 341 3.5 5.2 0.00 0.00 0.00 46 1012.2
20260503223017 78 343 3.5 7.0 0.00 0.00 0.00 46 1012.3
20260503222016 77 353 3.5 7.0 0.00 0.00 0.00 46 1012.4
20260503221016 77 344 4.3 10.4 0.00 0.00 0.00 44 1012.6
20260503220016 77 341 3.5 7.8 0.00 0.00 0.00 44 1012.9
20260503215016 0 0.0 0.0 0.00 0.00 0.00
20260503214018 78 358 3.5 7.8 0.00 0.00 0.00 44 1013.7
20260503213037 0 0.0 0.0 0.00 0.00 0.00
20260503212037 0 0.0 0.0 0.00 0.00 0.00
20260503211018 0 0.0 0.0 0.00 0.00 0.00
20260503210018 0 0.0 0.0 0.00 0.00 0.00
20260503205038 0 0.0 0.0 0.00 0.00 0.00
20260503204017 77 337 2.6 7.0 0.00 0.00 0.00 46 1016.2
20260503203018 77 331 3.5 7.0 0.00 0.00 0.00 47 1016.3
20260503202019 0 0.0 0.0 0.00 0.00 0.00
20260503201018 0 0.0 0.0 0.00 0.00 0.00
20260503200019 0 0.0 0.0 0.00 0.00 0.00
20260503195015 0 0.0 0.0 0.00 0.00 0.00
20260503194016 0 0.0 0.0 0.00 0.00 0.00
20260503193017 0 0.0 0.0 0.00 0.00 0.00
20260503192016 75 335 2.6 6.1 0.00 0.00 0.00 49 1016.1
20260503191017 75 341 2.6 7.0 0.00 0.00 0.00 47 1016.4
20260503190016 74 9 1.7 5.2 0.00 0.00 0.00 47 1016.5
20260503185017 73 2 2.6 6.1 0.00 0.00 0.00 48 1016.6
20260503184037 73 348 2.6 7.0 0.00 0.00 0.00 48 1016.7
20260503183037 0 0.0 0.0 0.00 0.00 0.00
20260503182017 71 345 3.5 7.8 0.00 0.00 0.00 50 1016.7
20260503181017 71 340 4.3 9.6 0.00 0.00 0.00 52 1017.0
20260503180017 0 0.0 0.0 0.00 0.00 0.00
20260503175018 71 344 2.6 6.1 0.00 0.00 0.00 53 1017.4
20260503174017 0 0.0 0.0 0.00 0.00 0.00
20260503173018 71 334 4.3 7.8 0.00 0.00 0.00 53 1017.9
20260503172016 71 349 2.6 7.0 0.00 0.00 0.00 54 1018.3
20260503171016 70 327 2.6 6.1 0.00 0.00 0.00 57 1018.7
20260503131036 53 277 0.0 0.9 0.00 0.00 0.00 85 1012.4
20260503081018 0 0.0 0.0 0.00 0.00 0.00
20260503072016 60 322 0.0 1.7 0.00 0.02 0.00 64 1010.0
20260503071037 59 0.0 0.0 0.00 0.02 0.00 64 1009.9
20260503055018 61 273 0.0 1.7 0.00 0.02 0.02 61 1009.2
20260503054038 0 0.0 0.0 0.00 0.02 0.02
20260503053019 0 0.0 0.0 0.00 0.02 0.02
20260503052018 0 0.0 0.0 0.00 0.02 0.02
20260503051038 0 0.0 0.0 0.00 0.02 0.02
20260503050019 0 0.0 0.0 0.00 0.02 0.02
20260503045018 0 0.0 0.0 0.00 0.02 0.02
20260503044018 65 235 0.0 0.9 0.00 0.02 0.02 55 1009.4
20260503043015 65 296 0.0 0.9 0.00 0.02 0.02 54 1009.4
20260503042016 65 0.0 0.0 0.00 0.02 0.02 54 1009.3
20260503041016 66 275 0.9 2.6 0.00 0.02 0.02 54 1009.3
20260503040017 66 299 0.0 0.9 0.00 0.02 0.02 53 1009.3
20260503035037 0 0.0 0.0 0.00 0.02 0.02
20260503034037 68 291 0.0 0.9 0.00 0.02 0.02 50 1009.7
20260503033037 0 0.0 0.0 0.00 0.02 0.02
20260503032017 0 0.0 0.0 0.00 0.02 0.02
20260503031018 69 336 2.6 7.0 0.00 0.02 0.02 48 1010.2
20260503030017 0 0.0 0.0 0.00 0.02 0.02
20260503025017 0 0.0 0.0 0.00 0.02 0.02
20260503024017 0 0.0 0.0 0.00 0.02 0.02
20260503023019 71 350 2.6 6.1 0.00 0.02 0.02 47 1011.0
20260503022038 0 0.0 0.0 0.00 0.02 0.02
20260503021018 0 0.0 0.0 0.00 0.02 0.02
20260503020016 71 338 5.2 9.6 0.00 0.02 0.02 48 1011.6
20260503015015 72 345 5.2 9.6 0.00 0.02 0.02 50 1012.0
20260503014016 72 340 5.2 9.6 0.00 0.02 0.02 50 1012.4
20260503013016 72 345 5.2 9.6 0.00 0.02 0.02 51 1012.9
20260503012057 73 349 5.2 8.7 0.00 0.02 0.02 53 1013.3
20260503011017 74 353 4.3 8.7 0.00 0.02 0.02 54 1013.6
20260503010017 0 0.0 0.0 0.00 0.02 0.02
20260503005017 74 335 2.6 4.3 0.00 0.02 0.02 57 1014.1
20260503004018 0 0.0 0.0 0.00 0.02 0.02
20260503003017 0 0.0 0.0 0.00 0.02 0.02
20260503002037 0 0.0 0.0 0.00 0.02 0.02
20260503001018 74 344 2.6 5.2 0.00 0.02 0.02 57 1014.9
20260503000017 74 351 3.5 8.7 0.00 0.02 0.02 55 1015.0
20260502235017 74 338 2.6 6.1 0.00 0.02 0.02 55 1015.3
20260502234017 74 351 3.5 7.0 0.00 0.02 0.02 55 1015.4
20260502233017 74 350 3.5 7.0 0.00 0.02 0.02 55 1015.8
20260502232018 74 348 2.6 7.8 0.00 0.02 0.02 55 1016.1
20260502231018 0 0.0 0.0 0.00 0.02 0.02
20260502230016 0 0.0 0.0 0.00 0.02 0.02
20260502225015 74 352 4.3 8.7 0.00 0.02 0.02 53 1016.6